Temperature
10 10 10 10 10 10 11 11 11 11 11 11 11 11 11 11 12 11 12 12 11 11 12 12 11 12 12 12 12 12 12 12 12 12 12 12 12 12 11 11 11 11 11
9 10 10 10 10 10 10 11 11 11 11 11 11 11 11 11 11 11 11 11 11 11 11 11 11 11 11 11 11 11 11 12 12 11 11 11 11 11 11 11 11 11 10
9 9 10 10 10 10 10 10 11 10 11 11 11 11 11 11 10 11 11 11 11 11 11 11 11 11 11 11 11 11 11 11 11 11 11 11 10 10 10 10 10 10 10
9 9 9 10 10 10 10 10 10 10 10 10 11 11 10 10 10 10 10 10 10 10 11 10 10 10 11 11 11 11 11 11 11 10 10 10 10 10 10 10 10 10 10
9 9 9 9 10 10 10 10 10 10 10 10 10 10 10 10 10 10 10 10 10 10 10 10 10 10 10 10 10 10 10 10 10 10 10 10 10 10 9 9 10 10 10
9 9 9 9 9 9 9 9 10 10 10 10 10 10 10 9 9 10 9 9 9 9 10 10 10 10 9 9 9 10 10 10 10 9 9 9 9 9 9 9 9 9 10
8 9 9 9 9 9 9 9 9 9 9 9 9 9 9 9 9 9 9 9 9 9 9 9 9 9 9 9 9 9 9 9 9 9 9 9 9 9 9 9 8 8 9
8 8 8 9 9 9 9 9 9 9 9 9 9 9 9 9 9 9 9 9 9 9 8 8 8 9 9 9 9 9 9 9 9 9 8 8 8 8 8 8 8 7 7
7 8 8 8 8 8 9 9 8 8 8 8 8 8 8 8 8 8 8 8 8 8 8 8 8 8 8 8 8 8 8 8 8 8 8 8 8 8 8 8 7 7 6
6 7 7 7 8 8 8 8 8 8 8 8 8 8 8 8 8 8 8 8 8 8 8 8 7 7 7 8 8 8 8 8 8 8 8 8 8 8 7 7 7 7 7
6 6 7 7 7 7 8 8 8 8 8 7 7 7 7 7 7 7 7 7 7 7 7 7 7 7 7 7 7 7 7 7 7 7 7 7 7 7 7 7 7 6 6
6 6 6 7 7 7 7 7 7 7 7 7 7 7 7 7 7 7 7 7 7 7 7 7 6 6 6 7 7 7 7 7 7 7 7 7 7 7 7 7 6 6 6
6 6 6 6 6 6 6 7 7 7 7 6 6 6 6 6 6 6 6 6 6 6 6 6 6 6 6 6 6 6 6 6 6 6 6 6 6 6 6 6 6 6 6
5 5 6 6 6 6 6 6 6 6 6 6 6 6 6 6 6 6 6 6 6 5 5 6 5 5 5 6 6 6 6 5 5 6 6 6 6 6 6 5 5 5 5
5 5 5 5 5 5 5 5 6 6 6 6 6 5 5 5 5 5 5 5 5 5 5 5 5 5 5 5 5 5 5 5 5 5 5 5 5 5 5 5 5 5 5
4 4 5 5 5 5 5 5 5 5 5 5 5 5 5 5 5 5 5 5 5 5 5 5 5 5 4 4 4 4 4 4 4 4 4 4 4 4 4 5 4 4 4
4 4 4 4 5 4 4 4 4 4 4 4 4 4 4 4 4 4 4 4 4 4 4 4 4 4 4 4 4 4 4 4 4 4 4 4 4 4 4 4 4 4 4
3 4 4 4 4 4 4 4 4 4 4 4 4 4 3 3 3 3 3 3 3 3 3 3 3 3 3 3 3 3 3 3 3 3 3 3 3 3 3 3 3 3 3
3 3 3 4 4 4 3 3 3 3 3 3 3 3 3 3 3 3 3 3 3 3 3 3 3 3 2 2 3 3 3 3 3 3 3 3 3 3 3 3 3 3 3
2 3 3 3 3 3 3 3 2 2 2 2 2 2 2 2 2 2 2 2 2 2 2 2 2 2 2 2 2 2 2 2 2 2 2 2 2 2 2 2 2 2 2
2 2 2 2 2 2 2 2 2 2 2 2 2 2 1 1 1 1 1 1 1 1 1 2 2 1 1 1 1 1 1 1 1 1 2 2 2 2 2 2 1 1 1
1 1 1 1 1 1 1 1 1 1 1 1 1 1 1 1 1 1 1 1 1 1 1 1 1 1 1 1 1 1 1 1 1 1 1 1 1 1 1 1 1 1 1
0 0 0 0 0 0 0 0 0 0 0 0 0 0 0 0 0 0 0 0 0 0 0 0 0 0 0 0 0 0 -0 -0 -0 -0 -0 -0 0 0 0 0 -0 -0 -0
-0 -0 -0 -1 -1 -1 -1 -0 -0 -0 -0 -0 -0 -0 -0 -0 -0 -0 -0 -0 -0 -0 -0 -0 -0 -0 -0 -0 -0 -0 -0 -1 -1 -1 -1 -1 -1 -1 -1 -1 -1 -1 -1
-1 -1 -1 -1 -1 -1 -1 -1 -1 -1 -1 -1 -1 -1 -1 -1 -1 -1 -1 -1 -1 -1 -1 -1 -1 -1 -1 -1 -1 -1 -1 -1 -1 -1 -1 -1 -1 -1 -1 -1 -1 -1 -1
-1 -2 -2 -2 -2 -2 -1 -1 -1 -1 -1 -1 -1 -1 -1 -1 -1 -1 -1 -1 -2 -2 -1 -1 -1 -1 -1 -1 -2 -2 -2 -2 -2 -2 -2 -2 -2 -2 -2 -2 -2 -2 -2
Wind_Speed
3 1 1 1 1 1 3 4 3 2 3 3 3 3 2 2 1 1 3 4 4 5 5 3 3 3 3 4 3 2 2 1 2 2 2 2 2 1 1 1 1 2 2
1 1 1 1 1 1 2 3 3 2 3 2 2 2 2 1 1 1 2 3 3 4 5 4 3 3 3 3 3 3 2 1 2 2 2 1 2 2 1 1 1 1 1
3 1 1 0 1 0 1 2 3 3 3 3 3 3 3 2 1 1 1 1 2 3 4 5 4 3 4 3 4 4 4 3 1 2 3 3 2 1 1 1 1 1 0
3 2 1 0 1 1 1 1 3 3 3 4 4 4 3 2 2 1 1 0 2 3 3 3 4 4 3 4 4 4 3 4 3 1 1 2 3 2 1 2 1 1 1
4 3 3 2 1 1 1 2 3 3 4 4 4 4 2 1 1 1 1 1 1 2 2 3 3 3 3 3 4 4 4 4 4 3 2 2 2 1 2 2 2 2 1
3 2 2 1 1 2 2 2 3 3 3 4 3 4 3 2 2 2 1 0 0 0 1 2 2 2 3 4 4 4 5 4 4 3 3 3 2 2 2 2 2 2 2
3 3 2 2 2 2 2 2 3 2 2 3 3 3 2 3 2 2 2 1 0 0 1 1 1 2 2 3 3 4 4 4 5 4 3 3 3 2 2 2 2 1 1
2 2 3 3 3 2 3 3 3 2 2 2 2 2 2 2 1 2 1 2 1 1 1 1 1 0 1 2 3 3 3 3 3 4 4 3 3 3 3 3 2 1 1
2 2 2 2 3 3 2 3 3 2 2 2 2 2 2 2 1 1 1 1 1 1 1 1 1 1 1 1 2 2 3 3 3 3 4 3 2 3 2 3 4 4 3
1 1 2 2 1 2 1 2 2 2 1 1 1 1 1 1 1 1 1 1 0 0 1 1 1 1 1 1 2 1 2 3 2 2 3 3 2 2 2 3 3 3 3
2 2 1 1 1 1 2 2 2 2 2 1 1 1 1 1 1 1 1 1 0 1 1 1 1 1 1 1 2 1 2 2 2 2 3 3 3 3 3 3 2 3 3
1 1 2 1 1 1 1 1 1 1 1 1 1 1 1 1 1 1 1 1 1 1 1 1 1 1 1 2 2 2 2 3 3 3 3 3 2 3 3 3 3 3 3
1 1 1 1 1 1 1 1 1 1 1 1 1 1 0 1 1 1 1 1 1 1 1 1 2 2 2 2 2 3 2 3 3 4 4 4 3 3 3 4 3 3 2
1 1 1 1 1 1 1 1 1 1 1 1 2 1 2 2 2 1 1 1 1 1 1 1 2 2 2 3 3 3 3 3 3 4 4 4 5 5 5 4 4 3 3
1 2 2 2 2 1 1 1 1 1 1 1 2 2 2 2 1 1 1 1 1 1 1 1 2 2 2 3 3 3 3 3 3 4 4 4 5 6 5 4 4 4 4
3 3 2 2 2 2 2 2 2 2 1 1 2 2 1 1 1 1 1 1 1 1 1 2 2 2 2 3 4 3 3 4 4 4 4 4 5 5 6 6 6 6 6
3 3 3 4 4 4 4 4 3 2 1 2 2 2 2 1 2 1 1 1 1 1 1 2 2 3 3 3 3 3 3 4 4 4 4 4 4 5 4 5 6 6 8
2 3 3 3 3 2 2 2 1 1 1 1 2 2 2 2 1 1 1 2 2 1 2 2 3 3 4 4 4 3 2 3 4 5 5 5 5 5 5 4 4 4 5
3 3 3 3 2 1 2 1 1 1 1 2 2 2 2 2 2 2 3 2 2 2 2 2 3 4 4 4 4 3 2 3 4 4 5 5 6 7 7 5 5 4 4
2 2 1 1 0 1 1 2 1 1 2 3 3 2 2 3 3 4 3 2 2 3 3 3 3 4 4 5 5 4 2 3 3 3 4 6 7 8 8 6 5 6 5
2 1 1 1 1 1 1 1 1 2 3 2 2 2 2 2 3 3 3 3 2 2 3 3 3 3 4 5 5 5 3 4 3 3 3 4 7 9 9 8 7 8 6
2 1 1 1 1 1 1 1 1 3 2 2 2 2 2 2 2 2 2 2 2 2 3 3 3 3 3 4 5 7 6 5 4 4 4 5 7 8 9 8 8 8 6
1 1 0 1 2 1 1 1 2 2 1 2 2 2 2 1 1 2 2 2 2 2 2 2 3 4 3 4 6 6 6 6 4 4 6 7 8 7 6 7 8 7 4
1 1 0 0 2 2 1 2 3 2 1 2 3 2 1 1 1 1 2 2 3 3 3 4 4 4 4 3 3 3 4 4 4 4 5 7 7 5 5 5 5 4 5
2 1 1 2 3 3 2 2 2 1 1 2 2 2 2 2 2 2 3 3 4 5 5 5 4 4 5 6 7 5 4 4 4 3 3 3 3 3 3 3 3 3 3
1 1 2 2 3 2 3 3 2 1 2 2 2 2 2 2 2 2 3 5 6 7 8 8 7 6 8 9 10 10 10 9 8 5 4 5 4 5 5 5 4 4 5
Wind_Direction
253 272 326 360 96 106 139 144 146 138 136 140 144 144 162 162 152 172 157 154 159 161 149 149 150 151 168 173 164 154 149 126 119 94 50 24 34 63 64 66 89 63 58
273 329 337 7 60 114 138 137 146 143 140 149 145 143 142 143 173 170 123 128 153 161 155 153 164 161 159 162 163 149 145 136 117 118 114 38 354 348 10 25 91 58 64
224 235 247 231 84 135 172 160 151 147 138 121 109 96 89 82 96 96 101 94 168 160 153 159 162 170 167 171 175 166 152 164 158 129 132 142 211 281 324 344 5 7 55
230 217 208 199 201 208 173 141 136 130 125 124 124 121 130 154 183 170 178 209 159 144 149 156 167 176 180 178 181 174 161 156 164 146 95 127 150 157 283 304 322 349 5
226 208 204 204 197 157 132 129 122 122 120 120 127 130 125 129 105 101 139 201 145 144 152 161 170 186 191 192 182 167 167 167 166 164 154 108 81 112 165 244 292 329 319
222 207 191 134 99 104 107 110 115 114 123 127 125 128 134 122 102 96 119 43 35 25 171 177 185 193 197 200 191 183 177 179 172 171 170 165 161 174 171 210 229 267 291
198 187 170 153 130 135 132 120 117 101 106 122 127 136 147 144 152 158 173 172 125 338 262 184 204 208 209 203 188 180 186 182 178 185 191 189 183 174 173 181 209 255 299
192 189 182 171 163 159 148 136 129 117 123 131 137 134 143 149 170 170 175 189 198 217 219 108 86 170 196 196 177 184 187 178 185 196 195 194 194 184 182 176 176 228 285
189 188 180 174 170 163 162 156 142 128 142 142 131 123 131 147 164 166 162 178 193 178 126 103 100 98 102 136 150 183 186 174 189 205 201 199 199 192 194 184 179 181 224
183 179 175 175 172 163 139 124 133 140 138 132 142 135 154 168 172 159 163 171 184 151 138 140 158 152 140 118 128 141 164 172 189 192 195 199 196 192 190 190 196 193 201
198 183 175 156 114 85 97 106 114 119 121 132 134 124 129 133 129 150 192 179 167 175 170 176 164 166 163 162 153 162 170 176 188 190 196 213 194 192 195 190 191 196 194
196 181 158 133 120 118 124 121 111 125 162 167 148 142 125 113 127 187 226 179 195 218 200 182 173 191 186 184 176 184 183 193 201 200 196 220 200 199 199 192 198 202 199
170 149 134 155 175 173 181 177 179 211 208 167 149 143 155 173 209 232 233 184 184 214 208 180 194 207 205 198 198 196 197 206 215 209 205 217 199 208 206 197 200 204 206
196 178 177 224 240 234 216 210 235 223 207 178 167 185 214 216 222 230 233 218 199 196 216 216 218 217 216 209 204 199 203 211 223 222 216 217 210 212 209 203 204 200 198
223 211 213 233 238 242 259 256 254 252 208 182 193 213 219 213 207 211 239 235 208 209 217 222 230 221 216 217 206 199 204 213 226 231 222 220 223 220 218 211 204 196 201
237 238 235 238 242 233 234 239 245 252 208 202 227 226 211 201 201 210 214 209 215 216 202 223 222 223 236 244 231 214 209 217 223 232 233 230 232 237 241 233 218 205 203
247 244 240 231 233 229 215 211 220 220 192 203 218 219 209 207 222 215 200 223 233 238 236 231 227 231 245 263 258 242 217 220 228 231 233 243 241 238 229 239 238 231 230
267 262 253 248 251 242 236 219 205 193 202 217 228 222 207 213 223 217 234 245 242 243 240 240 237 238 255 267 266 262 228 225 234 233 229 229 239 232 226 224 230 232 236
266 266 258 246 241 233 208 171 184 214 235 253 253 241 213 211 221 232 243 246 240 252 245 237 234 237 256 267 265 266 232 237 245 240 232 229 231 242 240 226 231 245 254
302 302 299 314 188 252 171 150 188 222 251 258 259 248 220 211 222 230 238 242 242 252 256 247 243 236 243 259 266 265 231 240 253 254 248 246 245 245 243 225 222 238 246
312 324 3 17 307 254 143 151 215 257 266 274 279 263 241 229 231 232 233 230 236 252 262 256 257 246 248 257 262 264 239 229 241 252 258 256 261 254 248 240 227 238 240
330 352 49 4 343 38 125 154 271 279 289 287 284 271 260 251 245 226 237 227 216 238 262 264 274 265 260 260 261 266 264 254 239 249 252 254 262 266 261 251 241 243 243
304 316 109 356 337 343 145 206 272 282 290 291 284 272 269 257 242 227 237 244 227 232 251 250 261 270 260 256 266 273 272 268 259 252 260 266 268 269 266 256 250 241 225
297 279 157 311 309 305 284 255 271 282 282 286 289 280 269 280 275 255 235 237 239 242 247 246 249 257 257 250 247 249 257 266 269 265 268 275 276 271 263 261 254 236 224
300 284 238 256 275 284 288 287 284 280 281 282 286 285 270 257 268 265 242 236 240 234 235 238 236 241 254 254 257 259 253 243 247 263 266 265 265 256 254 256 249 238 233
284 287 281 277 282 287 293 293 281 244 245 271 280 276 265 257 259 272 288 262 251 262 257 250 248 251 254 264 268 271 272 273 271 272 258 257 255 254 250 249 251 245 240
Height
1471 1471 1472 1472 1473 1473 1474 1476 1478 1480 1482 1484 1485 1487 1489 1491 1493 1495 1497 1499 1502 1504 1505 1507 1509 1510 1512 1514 1515 1517 1519 1520 1522 1523 1525 1526 1527 1528 1529 1529 1530 1530 1531
1468 1468 1469 1470 1470 1471 1472 1474 1476 1478 1480 1483 1484 1485 1487 1490 1491 1493 1494 1496 1499 1501 1503 1504 1506 1508 1509 1511 1512 1514 1516 1517 1518 1520 1522 1523 1526 1525 1526 1527 1527 1528 1528
1465 1466 1467 1467 1468 1469 1471 1472 1475 1476 1479 1481 1483 1484 1486 1488 1489 1491 1492 1494 1496 1498 1500 1501 1503 1505 1506 1507 1509 1511 1512 1514 1515 1517 1519 1520 1521 1522 1523 1524 1525 1525 1526
1464 1465 1465 1466 1467 1469 1470 1472 1473 1475 1477 1479 1481 1482 1484 1485 1487 1489 1490 1492 1494 1496 1498 1499 1501 1502 1504 1505 1506 1507 1509 1510 1512 1514 1516 1518 1518 1519 1520 1521 1522 1522 1523
1462 1463 1464 1465 1466 1468 1469 1471 1472 1474 1476 1478 1480 1481 1483 1484 1486 1487 1488 1490 1492 1493 1495 1496 1498 1500 1501 1502 1503 1504 1506 1507 1509 1510 1512 1514 1515 1516 1517 1517 1518 1519 1519
1460 1462 1463 1465 1466 1467 1469 1470 1471 1472 1474 1476 1478 1479 1481 1482 1484 1484 1486 1487 1489 1491 1493 1494 1495 1497 1498 1499 1500 1502 1503 1504 1506 1508 1509 1510 1511 1513 1514 1514 1514 1514 1516
1458 1460 1461 1463 1464 1466 1468 1469 1470 1471 1473 1475 1476 1478 1480 1481 1482 1483 1484 1486 1487 1488 1490 1491 1492 1493 1495 1496 1497 1499 1500 1501 1502 1504 1506 1508 1508 1510 1511 1512 1511 1511 1512
1456 1458 1459 1461 1463 1465 1466 1468 1469 1470 1472 1473 1475 1477 1478 1479 1480 1481 1483 1484 1485 1486 1487 1487 1489 1490 1491 1492 1493 1495 1496 1498 1499 1501 1503 1504 1505 1506 1507 1508 1508 1508 1508
1454 1456 1458 1460 1461 1463 1465 1466 1467 1469 1470 1472 1473 1474 1476 1477 1478 1479 1481 1482 1483 1484 1484 1484 1486 1487 1488 1489 1490 1491 1492 1494 1496 1497 1498 1500 1501 1502 1503 1504 1505 1506 1504
1452 1454 1456 1458 1460 1461 1463 1465 1466 1468 1469 1470 1471 1472 1474 1475 1476 1477 1478 1479 1480 1481 1481 1482 1483 1485 1485 1486 1486 1487 1489 1490 1492 1493 1494 1495 1497 1498 1499 1500 1501 1501 1502
1451 1452 1454 1457 1459 1460 1462 1464 1465 1466 1467 1468 1470 1471 1472 1473 1474 1475 1475 1476 1477 1478 1478 1479 1480 1481 1482 1483 1483 1484 1485 1486 1487 1489 1490 1491 1492 1493 1495 1496 1496 1497 1497
1450 1452 1454 1456 1457 1459 1461 1462 1463 1464 1466 1467 1468 1469 1470 1471 1471 1472 1473 1473 1474 1474 1475 1475 1476 1477 1478 1479 1480 1481 1481 1482 1483 1485 1486 1486 1487 1489 1490 1491 1491 1492 1492
1449 1451 1452 1454 1456 1457 1459 1460 1461 1462 1464 1465 1466 1466 1467 1468 1469 1469 1470 1470 1471 1471 1472 1473 1473 1474 1475 1476 1476 1477 1478 1478 1479 1480 1481 1482 1483 1484 1485 1486 1486 1487 1488
1448 1449 1451 1452 1454 1456 1457 1458 1459 1460 1461 1462 1463 1464 1464 1465 1466 1466 1467 1467 1468 1468 1468 1469 1470 1470 1471 1472 1472 1473 1473 1474 1475 1476 1477 1478 1478 1479 1480 1480 1481 1482 1483
1447 1448 1450 1451 1452 1454 1455 1456 1457 1458 1459 1459 1460 1461 1461 1462 1462 1462 1463 1463 1464 1464 1464 1465 1465 1466 1467 1467 1468 1468 1469 1470 1471 1472 1472 1473 1474 1474 1475 1476 1476 1477 1478
1445 1447 1448 1449 1450 1451 1452 1453 1454 1455 1455 1456 1457 1457 1458 1458 1458 1459 1459 1459 1459 1460 1460 1460 1461 1461 1462 1463 1463 1464 1464 1465 1466 1467 1467 1468 1469 1470 1470 1471 1471 1472 1472
1443 1444 1445 1446 1447 1448 1448 1449 1450 1451 1452 1452 1453 1453 1454 1454 1454 1455 1455 1455 1455 1455 1455 1456 1456 1456 1457 1458 1459 1460 1460 1460 1461 1461 1462 1463 1464 1465 1465 1465 1466 1467 1467
1441 1441 1442 1443 1444 1444 1445 1446 1446 1447 1448 1448 1449 1449 1449 1449 1450 1450 1450 1451 1451 1451 1451 1451 1451 1452 1453 1454 1454 1455 1455 1456 1456 1456 1457 1458 1458 1459 1460 1460 1460 1461 1462
1438 1439 1439 1440 1440 1441 1442 1443 1443 1444 1444 1444 1444 1445 1445 1445 1446 1446 1446 1446 1446 1446 1446 1447 1447 1448 1448 1450 1450 1450 1451 1451 1451 1451 1452 1452 1453 1454 1454 1454 1454 1455 1456
1436 1436 1436 1436 1437 1438 1438 1439 1439 1440 1440 1440 1441 1441 1441 1442 1442 1442 1442 1442 1442 1442 1442 1442 1443 1443 1444 1445 1445 1446 1446 1445 1445 1446 1446 1447 1447 1448 1448 1449 1449 1448 1449
1433 1433 1433 1433 1434 1434 1435 1435 1436 1436 1437 1437 1437 1437 1437 1438 1438 1438 1438 1438 1438 1438 1438 1438 1438 1439 1439 1440 1440 1441 1441 1440 1440 1440 1440 1441 1441 1442 1442 1443 1443 1442 1443
1431 1431 1431 1431 1431 1432 1432 1432 1433 1433 1433 1433 1433 1433 1433 1433 1433 1433 1433 1433 1433 1433 1433 1433 1433 1434 1435 1435 1435 1436 1436 1436 1436 1435 1435 1435 1435 1436 1436 1436 1437 1437 1437
1429 1429 1429 1429 1429 1429 1430 1430 1430 1430 1429 1429 1429 1429 1429 1429 1429 1429 1429 1429 1429 1429 1429 1429 1429 1430 1430 1431 1431 1431 1431 1431 1431 1430 1430 1430 1430 1430 1430 1430 1431 1431 1431
1427 1427 1427 1427 1427 1427 1427 1427 1427 1427 1426 1426 1426 1425 1425 1426 1426 1426 1426 1426 1426 1425 1425 1425 1425 1425 1425 1426 1426 1426 1426 1426 1426 1425 1425 1425 1425 1424 1424 1424 1425 1425 1425
1425 1425 1425 1425 1425 1425 1425 1425 1424 1424 1424 1423 1423 1422 1422 1422 1422 1422 1422 1422 1422 1422 1421 1421 1420 1420 1420 1420 1421 1421 1420 1420 1420 1420 1419 1419 1418 1418 1418 1418 1418 1419 1419
1423 1423 1423 1422 1422 1422 1422 1422 1422 1421 1421 1420 1419 1419 1419 1419 1418 1418 1418 1417 1418 1417 1417 1416 1416 1415 1415 1415 1415 1415 1415 1415 1415 1414 1413 1412 1412 1412 1412 1412 1412 1412 1413